Location: Newark
(41.0400°S, 62.7845°W)
Time: 00:06:06
(UTC+00:00)

Vanguard 2 - Pass Details

Date: 05 December 2021
Orbit: 554 x 2935 km, 32.9° (Epoch: 27 January)

Event Time Altitude Azimuth Distance (km) Brightness Sun altitude
Rises 02:48:46 0° 322° (NW) 6,453 11.9 -24.4°
Reaches altitude 10° 02:53:18 10° 329° (NNW) 5,613 11.5 -24.6°
Maximum altitude 03:08:49 39° 29° (NNE) 3,808 10.5 -25.4°
Drops below altitude 10° 03:22:51 10° 90° (E) 5,130 11.6 -25.9°
Sets 03:26:43 0° 97° (E) 5,871 12.0 -26.1°
